DELTA 1 DEB, 10208

Orbit data source: Space-Track

DELTA 1 DEB, 10208 is space debris in LEO originally from a launch on Thu, 14 Jul 1977 UTC launched from the Air Force Eastern Test Range (AFETR). Debris objects in space refer to the collection of defunct objects orbiting the Earth. Examples of debris include non-operational satellites, rocket bodies, and fragments generated from explosions, collisions, or faulty payload assembly.

Loading next visibility...
Identifier
10208, 1977-065AM
Orbit
LEO
Country
Flag of USUS
Related business
Manufacturer
Unknown
Mission
Spacecraft
Bus & Motor
Unknown
Mass
Unknown
Launch date (UTC)
1977-07-14 (48 years ago)
Launch vehicle
Unknown
Launch site
Air Force Eastern Test Range (AFETR)
Object type
Payload
Rocket body
Debris
Shape & HBR
Unknown shape, 0.2 m
Radar Cross Section
Small (<0.1 m²)

Expand to show TLE details & history
Last TLE update: 1 day ago

TLE from 1 day ago
0 DELTA 1 DEB
1 10208U 77065AM  25347.56551750  .00013223  00000-0  16312-2 0  9997
2 10208  28.9361  75.3417 0329900 307.8670  49.2500 14.49870246418685
Epoch: 2025-12-13T13:34Z
TLE epoch observation values (Epoch: 2025-12-13T13:34:20.711Z)
Latitude
-0.00001°
Longitude
149.26442°
Altitude
576.068 km
Speed
7.654 km/s
True Right ascension
05h 01m 22s
True Declination
0° 00' 00"
Sunlit
Object was in full shadow at epoch
Visualization orbit readout
Latitude
Unknown
Longitude
Unknown
Altitude
Unknown
Speed
Unknown
Apparent Right ascension
Unknown
Apparent Declination
Unknown
Sunlit
N/A
Visualization observer readout
Local Sidereal Time
15:51:08
Azimuth
Unknown
Elevation
Unknown
Doppler factor
Unknown
Orbital elements
Apogee altitude
964.608 km
Perigee altitude
495.606 km
Semi-major axis
7,108.244 km
Eccentricity
0.03299
Inclination
28.9361°
RAAN
75.3417°
Arg. of periapsis
307.867°
True anomaly
52.19172°
Mean anomaly
49.25°
Eccentric anomaly
50.71297°
Mean motion
3.62159 °/min
Orbital period
99.4 mins
BSTAR
0.0016312
Loading maneuver chart data...
Computing Atmospheric mass density...

Documentation

Showing up to 5 results
|